Home > Weather > Key West > Past weeks

Flag for U.S.A. Weather for the Past 2 Weeks in Key West, Florida, U.S.A.

Now
66 °F

Partly sunny.


Feels Like: 66 °F
Forecast: 64 / 68 °F
Wind: 15 mph from Northwest

Location: Key West International Airport

Current Time: Feb 9, 2016 at 6:01:32 PM

Latest Report: Feb 9, 2016 at 4:53 PM


Visibility: 10 mi

Pressure: 30.08 "Hg

Humidity: 70%

Dew point: 56 °F

Location of Key WestLocation

Historic Weather in Key West — Graph

°F

Key West Temperature Yesterday

Maximum temperature yesterday: 69 °F (at 11:53 PM)
Minimum temperature yesterday: 58 °F (at 6:53 AM)
Average temperature yesterday: 63 °F

High & Low Weather Summary for the Past Weeks

 TemperatureHumidityPressure
High81 °F (Feb 4, 12:53 PM)100% (Jan 27, 10:53 PM)30.22 "Hg (Jan 27, 10:53 PM)
Low58 °F (Feb 7, 7:53 AM)47% (Jan 29, 4:53 PM)29.80 "Hg (Jan 28, 3:53 PM)
Average70 °F81%30.05 "Hg
* Reported Jan 25 3:53 PM — Feb 9 3:53 PM, Key West, Weather by CustomWeather, © 2016

Note: Actual official high and low records may vary slightly from our data, if they occured in-between our weather recording intervals... More about our weather records

Advertising

Key West Weather History for the Previous 24 Hours

 ConditionsComfort  
Time TempWeatherWind HumidityBarometerVisibility
3:53 PM
Tue, Feb 9
67 °FMostly cloudy.10 mph68%30.07 "Hg10 mi
2:53 PM67 °FCloudy.15 mph68%30.07 "Hg10 mi
1:53 PM67 °FPassing clouds.16 mph66%30.08 "Hg10 mi
12:53 PM69 °FPassing clouds.16 mph61%30.10 "Hg10 mi
11:53 AM68 °FPassing clouds.16 mph65%30.12 "Hg10 mi
10:53 AM68 °FScattered clouds.15 mph65%30.13 "Hg10 mi
9:53 AM67 °FOvercast.14 mph68%30.13 "Hg10 mi
8:53 AM66 °FPartly sunny.15 mph70%30.12 "Hg10 mi
7:53 AM66 °FScattered clouds.16 mph73%30.09 "Hg10 mi
6:53 AM65 °FOvercast.16 mph85%30.07 "Hg10 mi
5:53 AM68 °FClear.15 mph65%30.04 "Hg10 mi
4:53 AM68 °FPassing clouds.15 mph70%30.03 "Hg10 mi
3:53 AM69 °FMostly cloudy.15 mph79%30.01 "Hg10 mi
2:53 AM69 °FClear.15 mph68%30.00 "Hg10 mi
1:53 AM69 °FClear.13 mph66%30.01 "Hg10 mi
12:53 AM69 °FClear.14 mph63%30.03 "Hg10 mi
11:53 PM
Mon, Feb 8
69 °FClear.16 mph63%30.04 "Hg10 mi
10:53 PM66 °FClear.13 mph73%30.06 "Hg10 mi
9:53 PM66 °FClear.8 mph73%30.07 "Hg10 mi
8:53 PM65 °FClear.6 mph73%30.07 "Hg10 mi
7:53 PM65 °FClear.7 mph66%30.06 "Hg10 mi
6:53 PM65 °FClear.9 mph66%30.05 "Hg10 mi
Weather by CustomWeather, © 2016

See weather overviewHow to use our weather pages